Year,Month,Day,Hour,Minute,Value (Times are PST for barometer in hPa)
2006,11,15,00,00,1009.75
2006,11,15,00,01,1009.75
2006,11,15,00,02,1009.75
2006,11,15,00,03,1009.72
2006,11,15,00,04,1009.79
2006,11,15,00,05,1009.79
2006,11,15,00,06,1009.72
2006,11,15,00,07,1009.69
2006,11,15,00,08,1009.61
2006,11,15,00,09,1009.47
2006,11,15,00,10,1009.38
2006,11,15,00,11,1009.38
2006,11,15,00,12,1009.35
2006,11,15,00,13,1009.35
2006,11,15,00,14,1009.35
2006,11,15,00,15,1009.38
2006,11,15,00,16,1009.41
2006,11,15,00,17,1009.31
2006,11,15,00,18,1009.25
2006,11,15,00,19,1009.18
2006,11,15,00,20,1009.11
2006,11,15,00,21,1009.10
2006,11,15,00,22,1009.00
2006,11,15,00,23,1008.87
2006,11,15,00,24,1008.84
2006,11,15,00,25,1008.81
2006,11,15,00,26,1008.74
2006,11,15,00,27,1008.74
2006,11,15,00,28,1008.70
2006,11,15,00,29,1008.70
2006,11,15,00,30,1008.64
2006,11,15,00,31,1008.64
2006,11,15,00,32,1008.64
2006,11,15,00,33,1008.53
2006,11,15,00,34,1008.49
2006,11,15,00,35,1008.40
2006,11,15,00,36,1008.33
2006,11,15,00,37,1008.33
2006,11,15,00,38,1008.33
2006,11,15,00,39,1008.33
2006,11,15,00,40,1008.26
2006,11,15,00,41,1008.16
2006,11,15,00,42,1008.09
2006,11,15,00,43,1008.03
2006,11,15,00,44,1007.99
2006,11,15,00,45,1007.96
2006,11,15,00,46,1007.89
2006,11,15,00,47,1007.86
2006,11,15,00,48,1007.79
2006,11,15,00,49,1007.72
2006,11,15,00,50,1007.65
2006,11,15,00,51,1007.65
2006,11,15,00,52,1007.55
2006,11,15,00,53,1007.48
2006,11,15,00,54,1007.45
2006,11,15,00,55,1007.35
2006,11,15,00,56,1007.35
2006,11,15,00,57,1007.32
2006,11,15,00,58,1007.34
2006,11,15,00,59,1007.25
2006,11,15,01,00,1007.25
2006,11,15,01,01,1007.28
2006,11,15,01,02,1007.21
2006,11,15,01,03,1007.25
2006,11,15,01,04,1007.28
2006,11,15,01,05,1007.28
2006,11,15,01,06,1007.25
2006,11,15,01,07,1007.14
2006,11,15,01,08,1006.97
2006,11,15,01,09,1006.84
2006,11,15,01,10,1006.77
2006,11,15,01,11,1006.73
2006,11,15,01,12,1006.64
2006,11,15,01,13,1006.60
2006,11,15,01,14,1006.64
2006,11,15,01,15,1006.57
2006,11,15,01,16,1006.43
2006,11,15,01,17,1006.33
2006,11,15,01,18,1006.23
2006,11,15,01,19,1006.16
2006,11,15,01,20,1006.16
2006,11,15,01,21,1006.23
2006,11,15,01,22,1006.15
2006,11,15,01,23,1006.02
2006,11,15,01,24,1005.89
2006,11,15,01,25,1005.86
2006,11,15,01,26,1005.86
2006,11,15,01,27,1005.79
2006,11,15,01,28,1005.86
2006,11,15,01,29,1005.86
2006,11,15,01,30,1005.79
2006,11,15,01,31,1005.72
2006,11,15,01,32,1005.62
2006,11,15,01,33,1005.62
2006,11,15,01,34,1005.62
2006,11,15,01,35,1005.59
2006,11,15,01,36,1005.49
2006,11,15,01,37,1005.52
2006,11,15,01,38,1005.45
2006,11,15,01,39,1005.45
2006,11,15,01,40,1005.45
2006,11,15,01,41,1005.49
2006,11,15,01,42,1005.35
2006,11,15,01,43,1005.32
2006,11,15,01,44,1005.28
2006,11,15,01,45,1005.22
2006,11,15,01,46,1005.18
2006,11,15,01,47,1005.25
2006,11,15,01,48,1005.18
2006,11,15,01,49,1005.11
2006,11,15,01,50,1005.08
2006,11,15,01,51,1005.01
2006,11,15,01,52,1005.00
2006,11,15,01,53,1004.91
2006,11,15,01,54,1004.91
2006,11,15,01,55,1004.88
2006,11,15,01,56,1004.84
2006,11,15,01,57,1004.88
2006,11,15,01,58,1004.81
2006,11,15,01,59,1004.88
2006,11,15,02,00,1004.88
2006,11,15,02,01,1004.84
2006,11,15,02,02,1004.88
2006,11,15,02,03,1004.84
2006,11,15,02,04,1004.81
2006,11,15,02,05,1004.78
2006,11,15,02,06,1004.78
2006,11,15,02,07,1004.78
2006,11,15,02,08,1004.74
2006,11,15,02,09,1004.74
2006,11,15,02,10,1004.61
2006,11,15,02,11,1004.54
2006,11,15,02,12,1004.61
2006,11,15,02,13,1004.54
2006,11,15,02,14,1004.53
2006,11,15,02,15,1004.44
2006,11,15,02,16,1004.37
2006,11,15,02,17,1004.27
2006,11,15,02,18,1004.17
2006,11,15,02,19,1004.27
2006,11,15,02,20,1004.34
2006,11,15,02,21,1004.34
2006,11,15,02,22,1004.34
2006,11,15,02,23,1004.29
2006,11,15,02,24,1004.16
2006,11,15,02,25,1004.03
2006,11,15,02,26,1003.83
2006,11,15,02,27,1003.84
2006,11,15,02,28,1004.00
2006,11,15,02,29,1004.10
2006,11,15,02,30,1004.10
2006,11,15,02,31,1003.90
2006,11,15,02,32,1003.73
2006,11,15,02,33,1003.83
2006,11,15,02,34,1003.83
2006,11,15,02,35,1003.83
2006,11,15,02,36,1003.76
2006,11,15,02,37,1003.62
2006,11,15,02,38,1003.56
2006,11,15,02,39,1003.52
2006,11,15,02,40,1003.66
2006,11,15,02,41,1003.86
2006,11,15,02,42,1003.93
2006,11,15,02,43,1003.83
2006,11,15,02,44,1003.65
2006,11,15,02,45,1003.52
2006,11,15,02,46,1003.52
2006,11,15,02,47,1003.56
2006,11,15,02,48,1003.52
2006,11,15,02,49,1003.42
2006,11,15,02,50,1003.25
2006,11,15,02,51,1003.18
2006,11,15,02,52,1003.08
2006,11,15,02,53,1003.15
2006,11,15,02,54,1003.29
2006,11,15,02,55,1003.39
2006,11,15,02,56,1003.22
2006,11,15,02,57,1003.08
2006,11,15,02,58,1003.08
2006,11,15,02,59,1003.25
2006,11,15,03,00,1003.35
2006,11,15,03,01,1003.38
2006,11,15,03,02,1003.22
2006,11,15,03,03,1003.15
2006,11,15,03,04,1003.18
2006,11,15,03,05,1003.18
2006,11,15,03,06,1003.05
2006,11,15,03,07,1002.91
2006,11,15,03,08,1003.01
2006,11,15,03,09,1003.05
2006,11,15,03,10,1002.91
2006,11,15,03,11,1002.78
2006,11,15,03,12,1002.98
2006,11,15,03,13,1003.01
2006,11,15,03,14,1002.78
2006,11,15,03,15,1002.71
2006,11,15,03,16,1002.71
2006,11,15,03,17,1002.73
2006,11,15,03,18,1002.54
2006,11,15,03,19,1002.41
2006,11,15,03,20,1002.34
2006,11,15,03,21,1002.24
2006,11,15,03,22,1002.17
2006,11,15,03,23,1002.27
2006,11,15,03,24,1002.34
2006,11,15,03,25,1002.44
2006,11,15,03,26,1002.51
2006,11,15,03,27,1002.37
2006,11,15,03,28,1002.24
2006,11,15,03,29,1002.03
2006,11,15,03,30,1002.00
2006,11,15,03,31,1001.90
2006,11,15,03,32,1001.83
2006,11,15,03,33,1001.76
2006,11,15,03,34,1001.73
2006,11,15,03,35,1001.69
2006,11,15,03,36,1001.63
2006,11,15,03,37,1001.63
2006,11,15,03,38,1001.63
2006,11,15,03,39,1001.52
2006,11,15,03,40,1001.49
2006,11,15,03,41,1001.46
2006,11,15,03,42,1001.39
2006,11,15,03,43,1001.46
2006,11,15,03,44,1001.39
2006,11,15,03,45,1001.36
2006,11,15,03,46,1001.32
2006,11,15,03,47,1001.32
2006,11,15,03,48,1001.42
2006,11,15,03,49,1001.49
2006,11,15,03,50,1001.49
2006,11,15,03,51,1001.39
2006,11,15,03,52,1001.36
2006,11,15,03,53,1001.36
2006,11,15,03,54,1001.32
2006,11,15,03,55,1001.36
2006,11,15,03,56,1001.52
2006,11,15,03,57,1001.59
2006,11,15,03,58,1001.39
2006,11,15,03,59,1001.36
2006,11,15,04,00,1001.46
2006,11,15,04,01,1001.49
2006,11,15,04,02,1001.15
2006,11,15,04,03,1001.02
2006,11,15,04,04,1000.95
2006,11,15,04,05,1000.78
2006,11,15,04,06,1000.81
2006,11,15,04,07,1000.82
2006,11,15,04,08,1000.92
2006,11,15,04,09,1001.02
2006,11,15,04,10,1001.05
2006,11,15,04,11,1001.12
2006,11,15,04,12,1001.05
2006,11,15,04,13,1000.98
2006,11,15,04,14,1001.05
2006,11,15,04,15,1001.15
2006,11,15,04,16,1000.95
2006,11,15,04,17,1000.92
2006,11,15,04,18,1000.95
2006,11,15,04,19,1000.95
2006,11,15,04,20,1000.85
2006,11,15,04,21,1000.64
2006,11,15,04,22,1000.61
2006,11,15,04,23,1000.54
2006,11,15,04,24,1000.61
2006,11,15,04,25,1000.64
2006,11,15,04,26,1000.54
2006,11,15,04,27,1000.51
2006,11,15,04,28,1000.48
2006,11,15,04,29,1000.48
2006,11,15,04,30,1000.48
2006,11,15,04,31,1000.51
2006,11,15,04,32,1000.34
2006,11,15,04,33,1000.31
2006,11,15,04,34,1000.31
2006,11,15,04,35,1000.31
2006,11,15,04,36,1000.27
2006,11,15,04,37,1000.24
2006,11,15,04,38,1000.17
2006,11,15,04,39,1000.17
2006,11,15,04,40,1000.14
2006,11,15,04,41,1000.14
2006,11,15,04,42,1000.07
2006,11,15,04,43,999.97
2006,11,15,04,44,1000.03
2006,11,15,04,45,1000.17
2006,11,15,04,46,1000.17
2006,11,15,04,47,1000.24
2006,11,15,04,48,1000.06
2006,11,15,04,49,999.83
2006,11,15,04,50,999.80
2006,11,15,04,51,999.83
2006,11,15,04,52,999.87
2006,11,15,04,53,999.76
2006,11,15,04,54,999.70
2006,11,15,04,55,999.66
2006,11,15,04,56,999.55
2006,11,15,04,57,999.46
2006,11,15,04,58,999.15
2006,11,15,04,59,999.12
2006,11,15,05,00,999.15
2006,11,15,05,01,999.26
2006,11,15,05,02,999.39
2006,11,15,05,03,999.46
2006,11,15,05,04,999.46
2006,11,15,05,05,999.29
2006,11,15,05,06,999.19
2006,11,15,05,07,999.26
2006,11,15,05,08,999.47
2006,11,15,05,09,999.63
2006,11,15,05,10,999.63
2006,11,15,05,11,999.76
2006,11,15,05,12,999.83
2006,11,15,05,13,999.73
2006,11,15,05,14,999.46
2006,11,15,05,15,999.15
2006,11,15,05,16,999.05
2006,11,15,05,17,999.09
2006,11,15,05,18,999.15
2006,11,15,05,19,999.15
2006,11,15,05,20,999.19
2006,11,15,05,21,999.22
2006,11,15,05,22,999.19
2006,11,15,05,23,999.09
2006,11,15,05,24,999.15
2006,11,15,05,25,999.15
2006,11,15,05,26,999.15
2006,11,15,05,27,999.15
2006,11,15,05,28,999.26
2006,11,15,05,29,999.36
2006,11,15,05,30,999.39
2006,11,15,05,31,999.37
2006,11,15,05,32,999.53
2006,11,15,05,33,999.64
2006,11,15,05,34,999.76
2006,11,15,05,35,999.80
2006,11,15,05,36,999.63
2006,11,15,05,37,999.52
2006,11,15,05,38,999.36
2006,11,15,05,39,999.18
2006,11,15,05,40,999.02
2006,11,15,05,41,998.99
2006,11,15,05,42,999.05
2006,11,15,05,43,999.09
2006,11,15,05,44,999.19
2006,11,15,05,45,999.19
2006,11,15,05,46,999.22
2006,11,15,05,47,999.26
2006,11,15,05,48,999.39
2006,11,15,05,49,999.43
2006,11,15,05,50,999.39
2006,11,15,05,51,999.26
2006,11,15,05,52,999.19
2006,11,15,05,53,999.15
2006,11,15,05,54,999.11
2006,11,15,05,55,998.99
2006,11,15,05,56,998.99
2006,11,15,05,57,999.05
2006,11,15,05,58,999.09
2006,11,15,05,59,999.09
2006,11,15,06,00,999.12
2006,11,15,06,01,999.05
2006,11,15,06,02,998.99
2006,11,15,06,03,999.02
2006,11,15,06,04,998.82
2006,11,15,06,05,998.68
2006,11,15,06,06,998.68
2006,11,15,06,07,998.68
2006,11,15,06,08,998.66
2006,11,15,06,09,998.75
2006,11,15,06,10,998.68
2006,11,15,06,11,998.64
2006,11,15,06,12,998.41
2006,11,15,06,13,998.24
2006,11,15,06,14,998.27
2006,11,15,06,15,998.26
2006,11,15,06,16,998.10
2006,11,15,06,17,997.82
2006,11,15,06,18,997.56
2006,11,15,06,19,997.53
2006,11,15,06,20,997.63
2006,11,15,06,21,997.97
2006,11,15,06,22,998.00
2006,11,15,06,23,997.87
2006,11,15,06,24,997.63
2006,11,15,06,25,997.70
2006,11,15,06,26,998.16
2006,11,15,06,27,998.07
2006,11,15,06,28,997.73
2006,11,15,06,29,997.63
2006,11,15,06,30,997.50
2006,11,15,06,31,997.56
2006,11,15,06,32,997.66
2006,11,15,06,33,997.56
2006,11,15,06,34,997.63
2006,11,15,06,35,997.60
2006,11,15,06,36,997.45
2006,11,15,06,37,997.26
2006,11,15,06,38,997.12
2006,11,15,06,39,997.05
2006,11,15,06,40,997.02
2006,11,15,06,41,997.02
2006,11,15,06,42,996.99
2006,11,15,06,43,996.99
2006,11,15,06,44,997.19
2006,11,15,06,45,997.19
2006,11,15,06,46,997.33
2006,11,15,06,47,997.22
2006,11,15,06,48,996.99
2006,11,15,06,49,997.05
2006,11,15,06,50,997.39
2006,11,15,06,51,997.50
2006,11,15,06,52,997.22
2006,11,15,06,53,996.95
2006,11,15,06,54,996.85
2006,11,15,06,55,997.02
2006,11,15,06,56,997.09
2006,11,15,06,57,997.01
2006,11,15,06,58,996.85
2006,11,15,06,59,996.89
2006,11,15,07,00,997.02
2006,11,15,07,01,997.02
2006,11,15,07,02,997.02
2006,11,15,07,03,997.02
2006,11,15,07,04,996.89
2006,11,15,07,05,996.51
2006,11,15,07,06,996.40
2006,11,15,07,07,996.76
2006,11,15,07,08,996.92
2006,11,15,07,09,996.89
2006,11,15,07,10,996.68
2006,11,15,07,11,996.68
2006,11,15,07,12,996.67
2006,11,15,07,13,996.48
2006,11,15,07,14,996.34
2006,11,15,07,15,996.65
2006,11,15,07,16,996.75
2006,11,15,07,17,996.68
2006,11,15,07,18,996.89
2006,11,15,07,19,996.78
2006,11,15,07,20,996.52
2006,11,15,07,21,996.51
2006,11,15,07,22,996.73
2006,11,15,07,23,996.99
2006,11,15,07,24,997.05
2006,11,15,07,25,996.92
2006,11,15,07,26,996.72
2006,11,15,07,27,996.41
2006,11,15,07,28,996.45
2006,11,15,07,29,996.55
2006,11,15,07,30,996.55
2006,11,15,07,31,996.51
2006,11,15,07,32,996.58
2006,11,15,07,33,996.75
2006,11,15,07,34,996.61
2006,11,15,07,35,996.58
2006,11,15,07,36,996.28
2006,11,15,07,37,996.21
2006,11,15,07,38,996.22
2006,11,15,07,39,996.31
2006,11,15,07,40,996.34
2006,11,15,07,41,996.48
2006,11,15,07,42,996.31
2006,11,15,07,43,996.16
2006,11,15,07,44,996.01
2006,11,15,07,45,996.01
2006,11,15,07,46,996.34
2006,11,15,07,47,996.34
2006,11,15,07,48,996.33
2006,11,15,07,49,996.14
2006,11,15,07,50,996.11
2006,11,15,07,51,995.94
2006,11,15,07,52,995.94
2006,11,15,07,53,995.93
2006,11,15,07,54,995.84
2006,11,15,07,55,995.70
2006,11,15,07,56,995.60
2006,11,15,07,57,995.60
2006,11,15,07,58,995.50
2006,11,15,07,59,995.46
2006,11,15,08,00,995.40
2006,11,15,08,01,995.46
2006,11,15,08,02,995.46
2006,11,15,08,03,995.46
2006,11,15,08,04,995.39
2006,11,15,08,05,995.19
2006,11,15,08,06,995.06
2006,11,15,08,07,995.13
2006,11,15,08,08,995.36
2006,11,15,08,09,995.26
2006,11,15,08,10,995.12
2006,11,15,08,11,995.06
2006,11,15,08,12,995.30
2006,11,15,08,13,995.43
2006,11,15,08,14,995.33
2006,11,15,08,15,995.26
2006,11,15,08,16,995.29
2006,11,15,08,17,995.23
2006,11,15,08,18,995.19
2006,11,15,08,19,994.96
2006,11,15,08,20,994.89
2006,11,15,08,21,994.85
2006,11,15,08,22,994.68
2006,11,15,08,23,994.72
2006,11,15,08,24,994.75
2006,11,15,08,25,994.85
2006,11,15,08,26,994.75
2006,11,15,08,27,994.62
2006,11,15,08,28,994.68
2006,11,15,08,29,994.65
2006,11,15,08,30,994.58
2006,11,15,08,31,994.52
2006,11,15,08,32,994.62
2006,11,15,08,33,994.65
2006,11,15,08,34,994.72
2006,11,15,08,35,994.72
2006,11,15,08,36,994.75
2006,11,15,08,37,994.82
2006,11,15,08,38,994.72
2006,11,15,08,39,994.74
2006,11,15,08,40,994.65
2006,11,15,08,41,994.72
2006,11,15,08,42,994.75
2006,11,15,08,43,994.72
2006,11,15,08,44,994.68
2006,11,15,08,45,994.65
2006,11,15,08,46,994.45
2006,11,15,08,47,994.46
2006,11,15,08,48,994.65
2006,11,15,08,49,994.62
2006,11,15,08,50,994.65
2006,11,15,08,51,994.58
2006,11,15,08,52,994.57
2006,11,15,08,53,994.41
2006,11,15,08,54,994.41
2006,11,15,08,55,994.28
2006,11,15,08,56,994.41
2006,11,15,08,57,994.31
2006,11,15,08,58,994.38
2006,11,15,08,59,994.31
2006,11,15,09,00,994.41
2006,11,15,09,01,994.41
2006,11,15,09,02,994.45
2006,11,15,09,03,994.48
2006,11,15,09,04,994.62
2006,11,15,09,05,994.75
2006,11,15,09,06,994.41
2006,11,15,09,07,994.48
2006,11,15,09,08,994.58
2006,11,15,09,09,994.48
2006,11,15,09,10,994.45
2006,11,15,09,11,994.28
2006,11,15,09,12,994.44
2006,11,15,09,13,994.58
2006,11,15,09,14,994.45
2006,11,15,09,15,994.45
2006,11,15,09,16,994.34
2006,11,15,09,17,994.21
2006,11,15,09,18,994.31
2006,11,15,09,19,994.31
2006,11,15,09,20,994.31
2006,11,15,09,21,994.35
2006,11,15,09,22,994.21
2006,11,15,09,23,994.11
2006,11,15,09,24,994.04
2006,11,15,09,25,993.97
2006,11,15,09,26,993.80
2006,11,15,09,27,993.67
2006,11,15,09,28,993.67
2006,11,15,09,29,993.60
2006,11,15,09,30,993.60
2006,11,15,09,31,993.60
2006,11,15,09,32,993.53
2006,11,15,09,33,993.43
2006,11,15,09,34,993.23
2006,11,15,09,35,993.23
2006,11,15,09,36,993.19
2006,11,15,09,37,993.06
2006,11,15,09,38,992.99
2006,11,15,09,39,992.96
2006,11,15,09,40,992.91
2006,11,15,09,41,992.79
2006,11,15,09,42,992.75
2006,11,15,09,43,992.72
2006,11,15,09,44,992.58
2006,11,15,09,45,992.45
2006,11,15,09,46,992.38
2006,11,15,09,47,992.38
2006,11,15,09,48,992.35
2006,11,15,09,49,992.21
2006,11,15,09,50,992.18
2006,11,15,09,51,992.18
2006,11,15,09,52,992.21
2006,11,15,09,53,992.21
2006,11,15,09,54,992.18
2006,11,15,09,55,992.11
2006,11,15,09,56,992.04
2006,11,15,09,57,991.98
2006,11,15,09,58,991.98
2006,11,15,09,59,991.84
2006,11,15,10,00,991.74
2006,11,15,10,01,991.74
2006,11,15,10,02,991.77
2006,11,15,10,03,991.74
2006,11,15,10,04,991.74
2006,11,15,10,05,991.70
2006,11,15,10,06,991.70
2006,11,15,10,07,991.64
2006,11,15,10,08,991.50
2006,11,15,10,09,991.53
2006,11,15,10,10,991.36
2006,11,15,10,11,991.23
2006,11,15,10,12,991.20
2006,11,15,10,13,991.20
2006,11,15,10,14,991.30
2006,11,15,10,15,991.30
2006,11,15,10,16,991.16
2006,11,15,10,17,991.16
2006,11,15,10,18,991.09
2006,11,15,10,19,991.20
2006,11,15,10,20,991.30
2006,11,15,10,21,991.37
2006,11,15,10,22,991.37
2006,11,15,10,23,991.30
2006,11,15,10,24,991.33
2006,11,15,10,25,991.33
2006,11,15,10,26,991.26
2006,11,15,10,27,991.14
2006,11,15,10,28,991.23
2006,11,15,10,29,991.20
2006,11,15,10,30,991.09
2006,11,15,10,31,991.03
2006,11,15,10,32,990.99
2006,11,15,10,33,990.89
2006,11,15,10,34,990.79
2006,11,15,10,35,990.62
2006,11,15,10,36,990.38
2006,11,15,10,37,990.25
2006,11,15,10,38,990.15
2006,11,15,10,39,990.15
2006,11,15,10,40,990.15
2006,11,15,10,41,990.04
2006,11,15,10,42,990.15
2006,11,15,10,43,990.25
2006,11,15,10,44,990.25
2006,11,15,10,45,990.04
2006,11,15,10,46,990.04
2006,11,15,10,47,990.21
2006,11,15,10,48,990.32
2006,11,15,10,49,990.32
2006,11,15,10,50,990.35
2006,11,15,10,51,990.36
2006,11,15,10,52,990.52
2006,11,15,10,53,990.55
2006,11,15,10,54,990.45
2006,11,15,10,55,990.55
2006,11,15,10,56,990.49
2006,11,15,10,57,990.59
2006,11,15,10,58,990.38
2006,11,15,10,59,990.61
2006,11,15,11,00,990.52
2006,11,15,11,01,990.62
2006,11,15,11,02,990.59
2006,11,15,11,03,990.51
2006,11,15,11,04,990.25
2006,11,15,11,05,990.15
2006,11,15,11,06,990.21
2006,11,15,11,07,990.11
2006,11,15,11,08,990.08
2006,11,15,11,09,989.98
2006,11,15,11,10,989.82
2006,11,15,11,11,989.71
2006,11,15,11,12,989.67
2006,11,15,11,13,989.33
2006,11,15,11,14,989.30
2006,11,15,11,15,989.23
2006,11,15,11,16,989.43
2006,11,15,11,17,989.47
2006,11,15,11,18,989.54
2006,11,15,11,19,989.55
2006,11,15,11,20,989.77
2006,11,15,11,21,989.88
2006,11,15,11,22,989.81
2006,11,15,11,23,989.74
2006,11,15,11,24,989.88
2006,11,15,11,25,989.88
2006,11,15,11,26,989.94
2006,11,15,11,27,989.82
2006,11,15,11,28,989.81
2006,11,15,11,29,989.97
2006,11,15,11,30,989.88
2006,11,15,11,31,989.60
2006,11,15,11,32,989.54
2006,11,15,11,33,989.60
2006,11,15,11,34,989.37
2006,11,15,11,35,989.16
2006,11,15,11,36,989.40
2006,11,15,11,37,989.50
2006,11,15,11,38,989.33
2006,11,15,11,39,989.23
2006,11,15,11,40,989.16
2006,11,15,11,41,989.16
2006,11,15,11,42,989.10
2006,11,15,11,43,989.13
2006,11,15,11,44,989.06
2006,11,15,11,45,989.10
2006,11,15,11,46,989.00
2006,11,15,11,47,988.96
2006,11,15,11,48,988.79
2006,11,15,11,49,988.69
2006,11,15,11,50,988.59
2006,11,15,11,51,988.59
2006,11,15,11,52,988.32
2006,11,15,11,53,988.05
2006,11,15,11,54,987.84
2006,11,15,11,55,987.95
2006,11,15,11,56,987.64
2006,11,15,11,57,987.64
2006,11,15,11,58,987.77
2006,11,15,11,59,987.95
2006,11,15,12,00,987.81
2006,11,15,12,01,987.85
2006,11,15,12,02,987.95
2006,11,15,12,03,988.01
2006,11,15,12,04,988.05
2006,11,15,12,05,988.17
2006,11,15,12,06,988.18
2006,11,15,12,07,988.08
2006,11,15,12,08,987.98
2006,11,15,12,09,987.98
2006,11,15,12,10,987.95
2006,11,15,12,11,988.05
2006,11,15,12,12,988.15
2006,11,15,12,13,988.22
2006,11,15,12,14,988.25
2006,11,15,12,15,988.28
2006,11,15,12,16,988.35
2006,11,15,12,17,988.25
2006,11,15,12,18,988.22
2006,11,15,12,19,988.05
2006,11,15,12,20,987.96
2006,11,15,12,21,988.15
2006,11,15,12,22,988.28
2006,11,15,12,23,988.42
2006,11,15,12,24,988.49
2006,11,15,12,25,988.36
2006,11,15,12,26,988.49
2006,11,15,12,27,988.52
2006,11,15,12,28,988.28
2006,11,15,12,29,988.32
2006,11,15,12,30,988.15
2006,11,15,12,31,987.98
2006,11,15,12,32,987.91
2006,11,15,12,33,987.81
2006,11,15,12,34,987.64
2006,11,15,12,35,987.57
2006,11,15,12,36,987.64
2006,11,15,12,37,987.61
2006,11,15,12,38,987.47
2006,11,15,12,39,987.37
2006,11,15,12,40,987.51
2006,11,15,12,41,987.64
2006,11,15,12,42,987.67
2006,11,15,12,43,987.81
2006,11,15,12,44,987.95
2006,11,15,12,45,987.95
2006,11,15,12,46,987.81
2006,11,15,12,47,987.74
2006,11,15,12,48,987.64
2006,11,15,12,49,987.54
2006,11,15,12,50,987.64
2006,11,15,12,51,987.64
2006,11,15,12,52,987.63
2006,11,15,12,53,987.47
2006,11,15,12,54,987.34
2006,11,15,12,55,987.27
2006,11,15,12,56,987.11
2006,11,15,12,57,986.96
2006,11,15,12,58,987.00
2006,11,15,12,59,987.03
2006,11,15,13,00,986.93
2006,11,15,13,01,987.05
2006,11,15,13,02,987.03
2006,11,15,13,03,987.03
2006,11,15,13,04,987.00
2006,11,15,13,05,986.96
2006,11,15,13,06,986.93
2006,11,15,13,07,987.06
2006,11,15,13,08,987.00
2006,11,15,13,09,986.96
2006,11,15,13,10,987.00
2006,11,15,13,11,986.90
2006,11,15,13,12,986.86
2006,11,15,13,13,986.86
2006,11,15,13,14,986.66
2006,11,15,13,15,986.66
2006,11,15,13,16,986.59
2006,11,15,13,17,986.52
2006,11,15,13,18,986.42
2006,11,15,13,19,986.46
2006,11,15,13,20,986.49
2006,11,15,13,21,986.56
2006,11,15,13,22,986.59
2006,11,15,13,23,986.56
2006,11,15,13,24,986.52
2006,11,15,13,25,986.42
2006,11,15,13,26,986.59
2006,11,15,13,27,986.66
2006,11,15,13,28,986.66
2006,11,15,13,29,986.56
2006,11,15,13,30,986.56
2006,11,15,13,31,986.62
2006,11,15,13,32,986.59
2006,11,15,13,33,986.62
2006,11,15,13,34,986.79
2006,11,15,13,35,986.67
2006,11,15,13,36,986.62
2006,11,15,13,37,986.69
2006,11,15,13,38,986.66
2006,11,15,13,39,986.62
2006,11,15,13,40,986.59
2006,11,15,13,41,986.52
2006,11,15,13,42,986.59
2006,11,15,13,43,986.59
2006,11,15,13,44,986.46
2006,11,15,13,45,986.39
2006,11,15,13,46,986.55
2006,11,15,13,47,986.42
2006,11,15,13,48,986.12
2006,11,15,13,49,986.29
2006,11,15,13,50,986.49
2006,11,15,13,51,986.39
2006,11,15,13,52,986.56
2006,11,15,13,53,986.49
2006,11,15,13,54,986.33
2006,11,15,13,55,986.25
2006,11,15,13,56,986.12
2006,11,15,13,57,986.05
2006,11,15,13,58,986.12
2006,11,15,13,59,986.02
2006,11,15,14,00,985.95
2006,11,15,14,01,985.95
2006,11,15,14,02,986.01
2006,11,15,14,03,985.71
2006,11,15,14,04,985.57
2006,11,15,14,05,985.47
2006,11,15,14,06,985.44
2006,11,15,14,07,985.37
2006,11,15,14,08,985.27
2006,11,15,14,09,985.13
2006,11,15,14,10,985.27
2006,11,15,14,11,985.17
2006,11,15,14,12,984.97
2006,11,15,14,13,985.00
2006,11,15,14,14,984.90
2006,11,15,14,15,984.93
2006,11,15,14,16,985.00
2006,11,15,14,17,985.07
2006,11,15,14,18,985.03
2006,11,15,14,19,985.07
2006,11,15,14,20,985.13
2006,11,15,14,21,985.10
2006,11,15,14,22,985.00
2006,11,15,14,23,984.97
2006,11,15,14,24,984.80
2006,11,15,14,25,984.80
2006,11,15,14,26,984.90
2006,11,15,14,27,984.76
2006,11,15,14,28,984.83
2006,11,15,14,29,984.90
2006,11,15,14,30,984.97
2006,11,15,14,31,984.97
2006,11,15,14,32,985.03
2006,11,15,14,33,985.20
2006,11,15,14,34,985.06
2006,11,15,14,35,984.86
2006,11,15,14,36,984.73
2006,11,15,14,37,984.76
2006,11,15,14,38,984.56
2006,11,15,14,39,984.66
2006,11,15,14,40,984.86
2006,11,15,14,41,984.93
2006,11,15,14,42,985.10
2006,11,15,14,43,985.17
2006,11,15,14,44,985.20
2006,11,15,14,45,985.20
2006,11,15,14,46,985.34
2006,11,15,14,47,985.21
2006,11,15,14,48,985.07
2006,11,15,14,49,985.13
2006,11,15,14,50,985.34
2006,11,15,14,51,985.17
2006,11,15,14,52,984.90
2006,11,15,14,53,984.66
2006,11,15,14,54,984.56
2006,11,15,14,55,984.63
2006,11,15,14,56,984.63
2006,11,15,14,57,984.46
2006,11,15,14,58,984.39
2006,11,15,14,59,984.39
2006,11,15,15,00,984.39
2006,11,15,15,01,984.32
2006,11,15,15,02,984.36
2006,11,15,15,03,984.23
2006,11,15,15,04,984.15
2006,11,15,15,05,984.19
2006,11,15,15,06,984.42
2006,11,15,15,07,984.56
2006,11,15,15,08,984.52
2006,11,15,15,09,984.39
2006,11,15,15,10,984.53
2006,11,15,15,11,984.49
2006,11,15,15,12,984.29
2006,11,15,15,13,984.29
2006,11,15,15,14,984.15
2006,11,15,15,15,984.15
2006,11,15,15,16,984.38
2006,11,15,15,17,984.15
2006,11,15,15,18,984.05
2006,11,15,15,19,984.19
2006,11,15,15,20,983.95
2006,11,15,15,21,983.95
2006,11,15,15,22,983.88
2006,11,15,15,23,983.85
2006,11,15,15,24,983.81
2006,11,15,15,25,983.95
2006,11,15,15,26,984.02
2006,11,15,15,27,983.85
2006,11,15,15,28,983.65
2006,11,15,15,29,983.75
2006,11,15,15,30,983.78
2006,11,15,15,31,983.64
2006,11,15,15,32,983.61
2006,11,15,15,33,983.64
2006,11,15,15,34,983.68
2006,11,15,15,35,983.61
2006,11,15,15,36,983.54
2006,11,15,15,37,983.61
2006,11,15,15,38,983.75
2006,11,15,15,39,983.81
2006,11,15,15,40,983.88
2006,11,15,15,41,984.05
2006,11,15,15,42,984.12
2006,11,15,15,43,984.15
2006,11,15,15,44,984.15
2006,11,15,15,45,984.25
2006,11,15,15,46,984.39
2006,11,15,15,47,984.46
2006,11,15,15,48,984.35
2006,11,15,15,49,984.25
2006,11,15,15,50,984.15
2006,11,15,15,51,984.25
2006,11,15,15,52,984.29
2006,11,15,15,53,984.42
2006,11,15,15,54,984.49
2006,11,15,15,55,984.56
2006,11,15,15,56,984.69
2006,11,15,15,57,985.04
2006,11,15,15,58,985.20
2006,11,15,15,59,984.90
2006,11,15,16,00,984.80
2006,11,15,16,01,984.67
2006,11,15,16,02,984.53
2006,11,15,16,03,984.46
2006,11,15,16,04,984.46
2006,11,15,16,05,984.49
2006,11,15,16,06,984.53
2006,11,15,16,07,984.56
2006,11,15,16,08,984.73
2006,11,15,16,09,984.76
2006,11,15,16,10,984.76
2006,11,15,16,11,984.76
2006,11,15,16,12,984.66
2006,11,15,16,13,984.66
2006,11,15,16,14,984.59
2006,11,15,16,15,984.69
2006,11,15,16,16,984.76
2006,11,15,16,17,984.66
2006,11,15,16,18,984.69
2006,11,15,16,19,984.90
2006,11,15,16,20,984.83
2006,11,15,16,21,984.76
2006,11,15,16,22,984.90
2006,11,15,16,23,984.93
2006,11,15,16,24,985.00